�v������,,���ԉ��x,�����t���O,���Ԏ��x,�����t���O,���ʏ�,�����t���O,��Q��,�����t���O,�{�C���[,�����t���O,����,�����t���O,����,�����t���O
2004/1/1,0:00:00,17,0,31.4,0,17.9,0,17.6,0,17.4,0,16.8,0,17.2,0
2004/1/1,0:10:00,17,0,31.2,0,17.9,0,17.6,0,17.3,0,16.8,0,17.1,0
2004/1/1,0:20:00,17,0,31.2,0,17.9,0,17.5,0,17.3,0,16.8,0,17.1,0
2004/1/1,0:30:00,17,0,31.1,0,17.9,0,17.5,0,17.3,0,16.8,0,17.1,0
2004/1/1,0:40:00,16.9,0,31,0,17.8,0,17.5,0,17.3,0,16.8,0,17.1,0
2004/1/1,0:50:00,17,0,31,0,17.8,0,17.5,0,17.3,0,16.8,0,17.1,0
2004/1/1,1:00:00,16.9,0,31,0,17.8,0,17.5,0,17.3,0,16.8,0,17.2,0
2004/1/1,1:10:00,16.9,0,31,0,17.8,0,17.5,0,17.3,0,16.8,0,17.2,0
2004/1/1,1:20:00,16.9,0,30.7,0,17.8,0,17.5,0,17.3,0,16.8,0,17.2,0
2004/1/1,1:30:00,16.9,0,30.3,0,17.8,0,17.5,0,17.3,0,16.8,0,17.1,0
2004/1/1,1:40:00,16.9,0,30,0,17.8,0,17.5,0,17.3,0,16.8,0,17.1,0
2004/1/1,1:50:00,16.8,0,29.7,0,17.8,0,17.4,0,17.3,0,16.8,0,17.1,0
2004/1/1,2:00:00,16.8,0,29.8,0,17.8,0,17.4,0,17.2,0,16.8,0,17.2,0
2004/1/1,2:10:00,16.8,0,29.6,0,17.8,0,17.4,0,17.2,0,16.8,0,17.1,0
2004/1/1,2:20:00,16.8,0,29.5,0,17.8,0,17.4,0,17.2,0,16.8,0,17,0
2004/1/1,2:30:00,16.8,0,29.4,0,17.8,0,17.4,0,17.2,0,16.8,0,17,0
2004/1/1,2:40:00,16.8,0,29.2,0,17.8,0,17.4,0,17.2,0,16.8,0,17.1,0
2004/1/1,2:50:00,16.8,0,29,0,17.8,0,17.3,0,17.2,0,16.8,0,17,0
2004/1/1,3:00:00,16.8,0,29,0,17.8,0,17.3,0,17.2,0,16.8,0,17,0
2004/1/1,3:10:00,16.7,0,28.9,0,17.7,0,17.3,0,17.2,0,16.8,0,17,0
2004/1/1,3:20:00,16.7,0,28.9,0,17.7,0,17.3,0,17.2,0,16.8,0,17,0
2004/1/1,3:30:00,16.7,0,28.8,0,17.7,0,17.3,0,17.2,0,16.8,0,17.1,0
2004/1/1,3:40:00,16.7,0,28.8,0,17.7,0,17.3,0,17.1,0,16.8,0,17.1,0
2004/1/1,3:50:00,16.7,0,28.7,0,17.7,0,17.3,0,17.1,0,16.8,0,17,0
2004/1/1,4:00:00,16.7,0,28.7,0,17.7,0,17.3,0,17.1,0,16.8,0,16.9,0
2004/1/1,4:10:00,16.7,0,28.7,0,17.6,0,17.3,0,17.1,0,16.8,0,16.9,0
2004/1/1,4:20:00,16.7,0,28.7,0,17.6,0,17.3,0,17.1,0,16.8,0,16.9,0
2004/1/1,4:30:00,16.7,0,28.8,0,17.6,0,17.3,0,17.1,0,16.8,0,16.9,0
2004/1/1,4:40:00,16.7,0,28.8,0,17.6,0,17.3,0,17.1,0,16.8,0,17,0
2004/1/1,4:50:00,16.7,0,28.8,0,17.6,0,17.3,0,17.1,0,16.8,0,17,0
2004/1/1,5:00:00,16.7,0,28.7,0,17.6,0,17.3,0,17.1,0,16.8,0,17,0
2004/1/1,5:10:00,16.7,0,28.8,0,17.6,0,17.3,0,17.1,0,16.8,0,16.9,0
2004/1/1,5:20:00,16.7,0,28.8,0,17.5,0,17.3,0,17,0,16.8,0,17,0
2004/1/1,5:30:00,16.7,0,29,0,17.5,0,17.3,0,17,0,16.8,0,16.9,0
2004/1/1,5:40:00,16.7,0,29,0,17.5,0,17.3,0,17,0,16.8,0,16.9,0
2004/1/1,5:50:00,16.7,0,28.9,0,17.5,0,17.3,0,17,0,16.8,0,16.9,0
2004/1/1,6:00:00,16.7,0,28.8,0,17.5,0,17.3,0,17,0,16.8,0,16.9,0
2004/1/1,6:10:00,16.7,0,28.8,0,17.5,0,17.3,0,17,0,16.8,0,16.9,0
2004/1/1,6:20:00,16.7,0,28.7,0,17.5,0,17.3,0,17,0,16.8,0,16.9,0
2004/1/1,6:30:00,16.7,0,28.6,0,17.5,0,17.3,0,17,0,16.8,0,16.9,0
2004/1/1,6:40:00,16.6,0,28.6,0,17.5,0,17.2,0,17,0,16.9,0,16.9,0
2004/1/1,6:50:00,16.6,0,28.4,0,17.5,0,17.2,0,17,0,16.9,0,16.9,0
2004/1/1,7:00:00,16.6,0,28.2,0,17.5,0,17.2,0,17,0,16.9,0,16.9,0
2004/1/1,7:10:00,16.6,0,28.2,0,17.5,0,17.2,0,17,0,16.9,0,16.9,0
2004/1/1,7:20:00,16.6,0,28.3,0,17.5,0,17.2,0,17,0,16.9,0,16.9,0
2004/1/1,7:30:00,16.6,0,28.3,0,17.5,0,17.2,0,16.9,0,16.9,0,16.9,0
2004/1/1,7:40:00,16.6,0,28.3,0,17.5,0,17.2,0,17,0,16.9,0,16.9,0
2004/1/1,7:50:00,16.6,0,28.4,0,17.5,0,17.2,0,16.9,0,16.9,0,16.9,0
2004/1/1,8:00:00,16.6,0,28.1,0,17.5,0,17.2,0,16.9,0,16.9,0,16.8,0
2004/1/1,8:10:00,16.6,0,28.1,0,17.5,0,17.2,0,16.9,0,16.9,0,16.8,0
2004/1/1,8:20:00,16.6,0,28.1,0,17.5,0,17.2,0,16.9,0,16.9,0,16.8,0
2004/1/1,8:30:00,16.6,0,28.1,0,17.4,0,17.2,0,16.9,0,16.8,0,16.8,0
2004/1/1,8:40:00,16.6,0,28.3,0,17.4,0,17.2,0,16.9,0,16.8,0,16.8,0
2004/1/1,8:50:00,16.6,0,28.4,0,17.4,0,17.2,0,16.9,0,16.8,0,16.8,0
2004/1/1,9:00:00,16.6,0,28.5,0,17.4,0,17.2,0,16.9,0,16.8,0,16.8,0
2004/1/1,9:10:00,16.6,0,28.5,0,17.4,0,17.2,0,17,0,16.8,0,16.8,0
2004/1/1,9:20:00,16.7,0,28.6,0,17.4,0,17.3,0,17,0,16.8,0,16.9,0
2004/1/1,9:30:00,16.7,0,28.9,0,17.4,0,17.3,0,17,0,16.8,0,16.9,0
2004/1/1,9:40:00,16.7,0,29.1,0,17.5,0,17.3,0,17,0,16.8,0,16.9,0
2004/1/1,9:50:00,16.7,0,29.2,0,17.5,0,17.3,0,17,0,16.8,0,16.9,0
2004/1/1,10:00:00,16.7,0,29.5,0,17.5,0,17.3,0,17,0,16.8,0,16.9,0
2004/1/1,10:10:00,16.7,0,29.6,0,17.5,0,17.4,0,17,0,16.8,0,17,0
2004/1/1,10:20:00,16.8,0,29.6,0,17.5,0,17.4,0,17,0,16.8,0,16.9,0
2004/1/1,10:30:00,16.8,0,29.8,0,17.6,0,17.4,0,17,0,16.7,0,17,0
2004/1/1,10:40:00,16.8,0,30,0,17.6,0,17.4,0,17.1,0,16.7,0,17.1,0
2004/1/1,10:50:00,16.8,0,30.2,0,17.6,0,17.4,0,17.1,0,16.7,0,17,0
2004/1/1,11:00:00,16.8,0,30.5,0,17.6,0,17.4,0,17.1,0,16.7,0,17,0
2004/1/1,11:10:00,16.8,0,30.5,0,17.6,0,17.5,0,17.1,0,16.7,0,17,0
2004/1/1,11:20:00,16.8,0,30.6,0,17.7,0,17.5,0,17.1,0,16.7,0,17,0
2004/1/1,11:30:00,16.8,0,30.7,0,17.7,0,17.5,0,17.1,0,16.7,0,17,0
2004/1/1,11:40:00,16.8,0,30.7,0,17.7,0,17.5,0,17.1,0,16.7,0,17,0
2004/1/1,11:50:00,16.8,0,30.8,0,17.7,0,17.5,0,17.1,0,16.7,0,17.1,0
2004/1/1,12:00:00,16.8,0,30.9,0,17.7,0,17.5,0,17.1,0,16.7,0,17.2,0
2004/1/1,12:10:00,16.8,0,30.8,0,17.8,0,17.5,0,17.1,0,16.7,0,17.2,0
2004/1/1,12:20:00,16.8,0,30.8,0,17.8,0,17.5,0,17.2,0,16.7,0,17.1,0
2004/1/1,12:30:00,16.8,0,30.9,0,17.8,0,17.5,0,17.2,0,16.7,0,17.1,0
2004/1/1,12:40:00,16.8,0,31,0,17.8,0,17.5,0,17.2,0,16.7,0,17.1,0
2004/1/1,12:50:00,16.9,0,31,0,17.8,0,17.5,0,17.2,0,16.7,0,17.1,0
2004/1/1,13:00:00,16.9,0,31.1,0,17.8,0,17.5,0,17.2,0,16.7,0,17.1,0
2004/1/1,13:10:00,16.9,0,31,0,17.8,0,17.6,0,17.2,0,16.7,0,17.2,0
2004/1/1,13:20:00,16.9,0,30.9,0,17.8,0,17.6,0,17.2,0,16.7,0,17.1,0
2004/1/1,13:30:00,16.9,0,31,0,17.8,0,17.6,0,17.2,0,16.7,0,17.2,0
2004/1/1,13:40:00,16.9,0,31,0,17.9,0,17.6,0,17.2,0,16.7,0,17.3,0
2004/1/1,13:50:00,16.9,0,31.1,0,17.9,0,17.7,0,17.3,0,16.7,0,17.2,0
2004/1/1,14:00:00,16.9,0,31.1,0,17.9,0,17.6,0,17.3,0,16.7,0,17.2,0
2004/1/1,14:10:00,16.9,0,31.2,0,17.9,0,17.6,0,17.3,0,16.7,0,17.2,0
2004/1/1,14:20:00,16.9,0,31,0,17.9,0,17.6,0,17.3,0,16.8,0,17.2,0
2004/1/1,14:30:00,16.9,0,31,0,17.9,0,17.6,0,17.3,0,16.8,0,17.2,0
2004/1/1,14:40:00,16.9,0,31,0,17.9,0,17.6,0,17.3,0,16.8,0,17.2,0
2004/1/1,14:50:00,16.9,0,30.8,0,17.8,0,17.6,0,17.3,0,16.8,0,17.2,0
2004/1/1,15:00:00,16.9,0,30.8,0,17.8,0,17.5,0,17.3,0,16.8,0,17.3,0
2004/1/1,15:10:00,16.9,0,30.8,0,17.8,0,17.5,0,17.2,0,16.8,0,17.3,0
2004/1/1,15:20:00,16.9,0,30.6,0,17.8,0,17.5,0,17.2,0,16.8,0,17.3,0
2004/1/1,15:30:00,16.9,0,30.6,0,17.8,0,17.5,0,17.2,0,16.8,0,17.2,0
2004/1/1,15:40:00,16.8,0,30.7,0,17.8,0,17.5,0,17.2,0,16.8,0,17.2,0
2004/1/1,15:50:00,16.8,0,30.7,0,17.8,0,17.5,0,17.2,0,16.8,0,17.2,0
2004/1/1,16:00:00,16.8,0,30.8,0,17.8,0,17.4,0,17.2,0,16.8,0,17.1,0
2004/1/1,16:10:00,16.8,0,30.8,0,17.8,0,17.4,0,17.2,0,16.8,0,17.1,0
2004/1/1,16:20:00,16.8,0,30.8,0,17.8,0,17.4,0,17.2,0,16.8,0,17.1,0
2004/1/1,16:30:00,16.8,0,30.8,0,17.8,0,17.4,0,17.2,0,16.8,0,17.1,0
2004/1/1,16:40:00,16.8,0,30.7,0,17.8,0,17.4,0,17.2,0,16.8,0,17.1,0
2004/1/1,16:50:00,16.8,0,30.8,0,17.8,0,17.4,0,17.2,0,16.8,0,17.1,0
2004/1/1,17:00:00,16.8,0,30.9,0,17.8,0,17.4,0,17.2,0,16.8,0,17.2,0
2004/1/1,17:10:00,16.8,0,30.9,0,17.8,0,17.4,0,17.2,0,16.8,0,17.2,0
2004/1/1,17:20:00,16.7,0,31,0,17.7,0,17.4,0,17.2,0,16.8,0,17.2,0
2004/1/1,17:30:00,16.7,0,30.9,0,17.7,0,17.4,0,17.1,0,16.8,0,17.1,0
2004/1/1,17:40:00,16.7,0,30.9,0,17.7,0,17.4,0,17.1,0,16.8,0,17.1,0
2004/1/1,17:50:00,16.7,0,31,0,17.7,0,17.4,0,17.1,0,16.8,0,17.1,0
2004/1/1,18:00:00,16.7,0,31.1,0,17.7,0,17.3,0,17.1,0,16.8,0,17.1,0
2004/1/1,18:10:00,16.7,0,31,0,17.7,0,17.3,0,17.1,0,16.8,0,17.1,0
2004/1/1,18:20:00,16.7,0,31.1,0,17.7,0,17.3,0,17.1,0,16.8,0,17.1,0
2004/1/1,18:30:00,16.7,0,31,0,17.7,0,17.3,0,17.1,0,16.8,0,17.1,0
2004/1/1,18:40:00,16.7,0,30.9,0,17.7,0,17.3,0,17.1,0,16.8,0,17.1,0
2004/1/1,18:50:00,16.7,0,31,0,17.7,0,17.3,0,17.1,0,16.8,0,17.1,0
2004/1/1,19:00:00,16.7,0,31,0,17.7,0,17.3,0,17.1,0,16.8,0,17.1,0
2004/1/1,19:10:00,16.7,0,31.1,0,17.7,0,17.3,0,17.1,0,16.8,0,17.1,0
2004/1/1,19:20:00,16.7,0,31.1,0,17.7,0,17.3,0,17.1,0,16.8,0,17.2,0
2004/1/1,19:30:00,16.7,0,31.1,0,17.7,0,17.3,0,17.1,0,16.8,0,17.2,0
2004/1/1,19:40:00,16.7,0,31,0,17.7,0,17.3,0,17.1,0,16.8,0,17.2,0
2004/1/1,19:50:00,16.7,0,31,0,17.7,0,17.3,0,17.1,0,16.8,0,17.2,0
2004/1/1,20:00:00,16.7,0,31.1,0,17.7,0,17.3,0,17.1,0,16.8,0,17.2,0
2004/1/1,20:10:00,16.7,0,31.1,0,17.7,0,17.3,0,17.1,0,16.8,0,17.1,0
2004/1/1,20:20:00,16.7,0,31.1,0,17.7,0,17.3,0,17.1,0,16.8,0,17.1,0
2004/1/1,20:30:00,16.6,0,31.2,0,17.7,0,17.3,0,17,0,16.8,0,17,0
2004/1/1,20:40:00,16.7,0,31.1,0,17.7,0,17.2,0,17.1,0,16.8,0,17,0
2004/1/1,20:50:00,16.6,0,31.1,0,17.7,0,17.2,0,17,0,16.8,0,17,0
2004/1/1,21:00:00,16.6,0,31.1,0,17.7,0,17.2,0,17,0,16.8,0,17,0
2004/1/1,21:10:00,16.6,0,31.2,0,17.7,0,17.2,0,17,0,16.8,0,17,0
2004/1/1,21:20:00,16.6,0,31.2,0,17.6,0,17.2,0,17,0,16.8,0,17,0
2004/1/1,21:30:00,16.6,0,31.3,0,17.6,0,17.2,0,17,0,16.7,0,17,0
2004/1/1,21:40:00,16.6,0,31.2,0,17.6,0,17.2,0,17,0,16.7,0,17,0
2004/1/1,21:50:00,16.6,0,31.2,0,17.7,0,17.2,0,17,0,16.7,0,17,0
2004/1/1,22:00:00,16.6,0,31.2,0,17.7,0,17.2,0,17,0,16.7,0,17,0
2004/1/1,22:10:00,16.6,0,31.2,0,17.7,0,17.2,0,17,0,16.7,0,17.1,0
2004/1/1,22:20:00,16.6,0,31.3,0,17.7,0,17.2,0,17,0,16.7,0,17.1,0
2004/1/1,22:30:00,16.6,0,31.4,0,17.7,0,17.2,0,17,0,16.7,0,17.1,0
2004/1/1,22:40:00,16.6,0,31.3,0,17.7,0,17.2,0,17,0,16.7,0,17,0
2004/1/1,22:50:00,16.6,0,31.3,0,17.7,0,17.2,0,17,0,16.7,0,17.1,0
2004/1/1,23:00:00,16.6,0,31.4,0,17.7,0,17.2,0,17,0,16.7,0,17.1,0
2004/1/1,23:10:00,16.6,0,31.3,0,17.7,0,17.2,0,17,0,16.7,0,17.1,0
2004/1/1,23:20:00,16.6,0,31.4,0,17.7,0,17.2,0,17,0,16.7,0,17.1,0
2004/1/1,23:30:00,16.6,0,31.4,0,17.7,0,17.2,0,17,0,16.7,0,17.1,0
2004/1/1,23:40:00,16.6,0,31.4,0,17.7,0,17.2,0,17,0,16.7,0,17.1,0
2004/1/1,23:50:00,16.6,0,31.3,0,17.7,0,17.2,0,17,0,16.7,0,17.1,0
2004/1/2,0:00:00,16.6,0,31.2,0,17.7,0,17.2,0,17,0,16.7,0,17.1,0
2004/1/2,0:10:00,16.6,0,31.4,0,17.7,0,17.2,0,17,0,16.6,0,17.1,0
2004/1/2,0:20:00,16.6,0,31.4,0,17.7,0,17.2,0,17,0,16.6,0,17.1,0
2004/1/2,0:30:00,16.5,0,31.4,0,17.7,0,17.2,0,16.9,0,16.6,0,17.1,0
2004/1/2,0:40:00,16.6,0,31.4,0,17.7,0,17.2,0,17,0,16.6,0,17.1,0
2004/1/2,0:50:00,16.5,0,31.4,0,17.7,0,17.2,0,17,0,16.6,0,17.1,0
2004/1/2,1:00:00,16.5,0,31.4,0,17.6,0,17.1,0,16.9,0,16.6,0,17,0
2004/1/2,1:10:00,16.5,0,31.2,0,17.6,0,17.1,0,16.9,0,16.6,0,17,0
2004/1/2,1:20:00,16.5,0,31.1,0,17.6,0,17.1,0,16.9,0,16.6,0,17,0
2004/1/2,1:30:00,16.5,0,31,0,17.6,0,17.1,0,16.9,0,16.6,0,17,0
2004/1/2,1:40:00,16.5,0,31,0,17.6,0,17.1,0,16.9,0,16.6,0,17,0
2004/1/2,1:50:00,16.5,0,31.1,0,17.6,0,17.1,0,16.9,0,16.6,0,17,0
2004/1/2,2:00:00,16.5,0,31.2,0,17.6,0,17.1,0,16.9,0,16.6,0,17,0
2004/1/2,2:10:00,16.5,0,31.2,0,17.6,0,17.1,0,16.9,0,16.6,0,17,0
2004/1/2,2:20:00,16.5,0,31.3,0,17.6,0,17.1,0,16.9,0,16.6,0,17,0
2004/1/2,2:30:00,16.5,0,31.3,0,17.6,0,17.1,0,16.9,0,16.6,0,17,0
2004/1/2,2:40:00,16.5,0,31.2,0,17.6,0,17.1,0,16.9,0,16.6,0,17,0
2004/1/2,2:50:00,16.5,0,31.2,0,17.6,0,17.1,0,16.9,0,16.6,0,17,0
2004/1/2,3:00:00,16.5,0,31.3,0,17.6,0,17.1,0,16.9,0,16.7,0,17,0
2004/1/2,3:10:00,16.5,0,31.3,0,17.5,0,17.1,0,16.9,0,16.7,0,17,0
2004/1/2,3:20:00,16.5,0,31.3,0,17.5,0,17.1,0,16.9,0,16.7,0,17,0
2004/1/2,3:30:00,16.5,0,31.4,0,17.5,0,17.1,0,16.9,0,16.7,0,17,0
2004/1/2,3:40:00,16.5,0,31.2,0,17.5,0,17.1,0,16.9,0,16.7,0,17,0
2004/1/2,3:50:00,16.5,0,31.2,0,17.5,0,17.1,0,16.9,0,16.7,0,17,0
2004/1/2,4:00:00,16.5,0,31.3,0,17.5,0,17.1,0,16.9,0,16.7,0,17,0
2004/1/2,4:10:00,16.5,0,31.4,0,17.5,0,17.1,0,16.9,0,16.7,0,17,0
2004/1/2,4:20:00,16.5,0,31.5,0,17.5,0,17.1,0,16.9,0,16.7,0,17,0
2004/1/2,4:30:00,16.5,0,31.5,0,17.5,0,17.1,0,16.9,0,16.7,0,17.1,0
2004/1/2,4:40:00,16.5,0,31.5,0,17.5,0,17.1,0,16.9,0,16.7,0,17.1,0
2004/1/2,4:50:00,16.5,0,31.6,0,17.5,0,17.1,0,16.9,0,16.7,0,17.1,0
2004/1/2,5:00:00,16.5,0,31.7,0,17.5,0,17.1,0,16.9,0,16.7,0,17,0
2004/1/2,5:10:00,16.5,0,31.8,0,17.5,0,17.1,0,16.9,0,16.7,0,17,0
2004/1/2,5:20:00,16.5,0,31.8,0,17.5,0,17.1,0,16.9,0,16.7,0,17,0
2004/1/2,5:30:00,16.5,0,31.8,0,17.5,0,17.1,0,16.9,0,16.7,0,17,0
2004/1/2,5:40:00,16.4,0,31.9,0,17.5,0,17.1,0,16.9,0,16.7,0,17,0
2004/1/2,5:50:00,16.5,0,31.9,0,17.5,0,17.1,0,16.9,0,16.7,0,17,0
2004/1/2,6:00:00,16.5,0,31.9,0,17.5,0,17.1,0,16.9,0,16.7,0,17,0
2004/1/2,6:10:00,16.5,0,32,0,17.5,0,17.1,0,16.9,0,16.7,0,17,0
2004/1/2,6:20:00,16.5,0,32,0,17.5,0,17.1,0,16.9,0,16.7,0,17,0
2004/1/2,6:30:00,16.4,0,32,0,17.5,0,17.1,0,16.9,0,16.7,0,17,0
2004/1/2,6:40:00,16.4,0,31.9,0,17.5,0,17.1,0,16.8,0,16.6,0,17,0
2004/1/2,6:50:00,16.4,0,31.8,0,17.5,0,17.1,0,16.8,0,16.6,0,17,0
2004/1/2,7:00:00,16.4,0,31.8,0,17.5,0,17,0,16.8,0,16.6,0,17,0
2004/1/2,7:10:00,16.4,0,31.9,0,17.5,0,17,0,16.8,0,16.6,0,17,0
2004/1/2,7:20:00,16.4,0,31.9,0,17.5,0,17,0,16.8,0,16.6,0,17,0
2004/1/2,7:30:00,16.4,0,32,0,17.4,0,17,0,16.8,0,16.6,0,17,0
2004/1/2,7:40:00,16.4,0,32,0,17.4,0,17,0,16.8,0,16.6,0,17,0
2004/1/2,7:50:00,16.4,0,31.9,0,17.4,0,17,0,16.8,0,16.6,0,17,0
2004/1/2,8:00:00,16.4,0,31.9,0,17.5,0,17,0,16.8,0,16.6,0,17,0
2004/1/2,8:10:00,16.4,0,31.9,0,17.5,0,17,0,16.8,0,16.6,0,17,0
2004/1/2,8:20:00,16.4,0,31.9,0,17.5,0,17.1,0,16.8,0,16.6,0,17,0
2004/1/2,8:30:00,16.4,0,31.9,0,17.5,0,17.1,0,16.8,0,16.6,0,17,0
2004/1/2,8:40:00,16.4,0,31.9,0,17.5,0,17.1,0,16.8,0,16.6,0,17,0
2004/1/2,8:50:00,16.5,0,31.9,0,17.5,0,17.1,0,16.8,0,16.6,0,17,0
2004/1/2,9:00:00,16.5,0,31.8,0,17.5,0,17.1,0,16.8,0,16.6,0,17,0
2004/1/2,9:10:00,16.5,0,31.8,0,17.5,0,17.1,0,16.9,0,16.6,0,17,0
2004/1/2,9:20:00,16.5,0,31.8,0,17.5,0,17.1,0,16.9,0,16.6,0,17.1,0
2004/1/2,9:30:00,16.5,0,32.1,0,17.5,0,17.1,0,16.9,0,16.6,0,17.1,0
2004/1/2,9:40:00,16.5,0,32,0,17.5,0,17.1,0,16.9,0,16.6,0,17.1,0
2004/1/2,9:50:00,16.5,0,32.1,0,17.6,0,17.1,0,16.9,0,16.6,0,17,0
2004/1/2,10:00:00,16.5,0,32,0,17.6,0,17.1,0,16.9,0,16.6,0,17,0
2004/1/2,10:10:00,16.5,0,31.9,0,17.6,0,17.1,0,16.9,0,16.6,0,17,0
2004/1/2,10:20:00,16.5,0,31.9,0,17.6,0,17.1,0,16.9,0,16.6,0,17.1,0
2004/1/2,10:30:00,16.5,0,31.9,0,17.6,0,17.2,0,16.9,0,16.6,0,17.1,0
2004/1/2,10:40:00,16.5,0,31.9,0,17.6,0,17.2,0,16.9,0,16.6,0,17.1,0
2004/1/2,10:50:00,16.5,0,31.9,0,17.6,0,17.2,0,16.9,0,16.6,0,17.1,0
2004/1/2,11:00:00,16.5,0,31.9,0,17.6,0,17.2,0,16.9,0,16.6,0,17.1,0
2004/1/2,11:10:00,16.5,0,31.9,0,17.6,0,17.2,0,16.9,0,16.6,0,17.2,0
2004/1/2,11:20:00,16.5,0,31.8,0,17.6,0,17.2,0,16.9,0,16.6,0,17.2,0
2004/1/2,11:30:00,16.5,0,31.8,0,17.6,0,17.2,0,16.9,0,16.6,0,17.2,0
2004/1/2,11:40:00,16.5,0,31.8,0,17.6,0,17.2,0,16.9,0,16.6,0,17.2,0
2004/1/2,11:50:00,16.5,0,31.8,0,17.6,0,17.2,0,16.9,0,16.6,0,17.2,0
2004/1/2,12:00:00,16.5,0,31.8,0,17.6,0,17.2,0,16.9,0,16.6,0,17.2,0
2004/1/2,12:10:00,16.5,0,31.7,0,17.6,0,17.2,0,16.9,0,16.7,0,17.2,0
2004/1/2,12:20:00,16.5,0,31.7,0,17.7,0,17.2,0,17,0,16.7,0,17.1,0
2004/1/2,12:30:00,16.5,0,31.8,0,17.7,0,17.2,0,17,0,16.7,0,17.1,0
2004/1/2,12:40:00,16.5,0,31.8,0,17.7,0,17.2,0,17,0,16.7,0,17.1,0
2004/1/2,12:50:00,16.5,0,31.8,0,17.7,0,17.2,0,17,0,16.7,0,17.1,0
2004/1/2,13:00:00,16.5,0,31.9,0,17.7,0,17.2,0,17,0,16.7,0,17.1,0
2004/1/2,13:10:00,16.5,0,31.9,0,17.7,0,17.1,0,17,0,16.7,0,17.1,0
2004/1/2,13:20:00,16.5,0,31.9,0,17.7,0,17.1,0,17,0,16.7,0,17.1,0
2004/1/2,13:30:00,16.5,0,31.9,0,17.7,0,17.1,0,17,0,16.7,0,17.1,0
2004/1/2,13:40:00,16.5,0,31.9,0,17.7,0,17.1,0,17,0,16.7,0,17.1,0
2004/1/2,13:50:00,16.5,0,32,0,17.7,0,17.1,0,17,0,16.7,0,17.1,0
2004/1/2,14:00:00,16.5,0,32,0,17.7,0,17.1,0,17,0,16.7,0,17.1,0
2004/1/2,14:10:00,16.5,0,32,0,17.7,0,17.1,0,17,0,16.7,0,17.1,0
2004/1/2,14:20:00,16.5,0,32,0,17.7,0,17.1,0,17,0,16.7,0,17.2,0
2004/1/2,14:30:00,16.5,0,32,0,17.7,0,17.1,0,17,0,16.7,0,17.2,0
2004/1/2,14:40:00,16.5,0,32.1,0,17.7,0,17.1,0,17,0,16.7,0,17.2,0
2004/1/2,14:50:00,16.5,0,32.1,0,17.7,0,17.1,0,17,0,16.7,0,17.2,0
2004/1/2,15:00:00,16.5,0,32.1,0,17.7,0,17.1,0,17,0,16.7,0,17.2,0
2004/1/2,15:10:00,16.5,0,32,0,17.7,0,17.1,0,17,0,16.7,0,17.2,0
2004/1/2,15:20:00,16.5,0,32,0,17.7,0,17.1,0,17,0,16.7,0,17.2,0
2004/1/2,15:30:00,16.5,0,32,0,17.7,0,17.1,0,17,0,16.7,0,17.1,0
2004/1/2,15:40:00,16.5,0,31.9,0,17.7,0,17.1,0,17,0,16.7,0,17.1,0
2004/1/2,15:50:00,16.5,0,31.9,0,17.7,0,17.1,0,17,0,16.7,0,17.2,0
2004/1/2,16:00:00,16.5,0,31.9,0,17.7,0,17.1,0,16.9,0,16.7,0,17.2,0
2004/1/2,16:10:00,16.4,0,31.9,0,17.7,0,17.1,0,16.9,0,16.6,0,17.1,0
2004/1/2,16:20:00,16.4,0,31.9,0,17.6,0,17,0,16.9,0,16.6,0,17.1,0
2004/1/2,16:30:00,16.4,0,31.8,0,17.6,0,17,0,16.9,0,16.6,0,17.1,0
2004/1/2,16:40:00,16.4,0,31.9,0,17.6,0,17,0,16.9,0,16.6,0,17.1,0
2004/1/2,16:50:00,16.4,0,31.9,0,17.6,0,17,0,16.9,0,16.6,0,17.1,0
2004/1/2,17:00:00,16.4,0,32,0,17.6,0,17,0,16.9,0,16.6,0,17.1,0
2004/1/2,17:10:00,16.4,0,32,0,17.6,0,17,0,16.9,0,16.6,0,17.1,0
2004/1/2,17:20:00,16.4,0,32,0,17.6,0,17,0,16.9,0,16.6,0,17.1,0
2004/1/2,17:30:00,16.4,0,32,0,17.6,0,17,0,16.9,0,16.6,0,17.1,0
2004/1/2,17:40:00,16.4,0,32,0,17.6,0,17,0,16.9,0,16.6,0,17.1,0
2004/1/2,17:50:00,16.4,0,32.1,0,17.6,0,17,0,16.9,0,16.6,0,17.1,0
2004/1/2,18:00:00,16.4,0,32.1,0,17.6,0,17,0,16.9,0,16.6,0,17.1,0
2004/1/2,18:10:00,16.4,0,32.1,0,17.6,0,17,0,16.9,0,16.6,0,17.2,0
2004/1/2,18:20:00,16.4,0,32.2,0,17.6,0,17,0,16.8,0,16.6,0,17.2,0
2004/1/2,18:30:00,16.4,0,32.2,0,17.6,0,17,0,16.8,0,16.6,0,17.1,0
2004/1/2,18:40:00,16.4,0,32.2,0,17.6,0,17,0,16.8,0,16.6,0,17.2,0
2004/1/2,18:50:00,16.4,0,32.2,0,17.6,0,17,0,16.8,0,16.6,0,17.2,0
2004/1/2,19:00:00,16.4,0,32.2,0,17.6,0,17,0,16.8,0,16.6,0,17.2,0
2004/1/2,19:10:00,16.4,0,32.2,0,17.6,0,17,0,16.9,0,16.6,0,17.2,0
2004/1/2,19:20:00,16.3,0,32.3,0,17.6,0,17,0,16.8,0,16.6,0,17.2,0
2004/1/2,19:30:00,16.4,0,32.2,0,17.6,0,17,0,16.8,0,16.6,0,17.2,0
2004/1/2,19:40:00,16.3,0,32.2,0,17.6,0,17,0,16.8,0,16.6,0,17.1,0
2004/1/2,19:50:00,16.3,0,32.3,0,17.6,0,17,0,16.8,0,16.6,0,17.2,0
2004/1/2,20:00:00,16.3,0,32.2,0,17.6,0,17,0,16.8,0,16.6,0,17.2,0
2004/1/2,20:10:00,16.3,0,32.2,0,17.6,0,17,0,16.8,0,16.6,0,17.2,0
2004/1/2,20:20:00,16.3,0,32.3,0,17.6,0,16.9,0,16.8,0,16.6,0,17.2,0
2004/1/2,20:30:00,16.3,0,32.3,0,17.6,0,16.9,0,16.8,0,16.6,0,17.1,0
2004/1/2,20:40:00,16.3,0,32.3,0,17.6,0,16.9,0,16.8,0,16.6,0,17.2,0
2004/1/2,20:50:00,16.3,0,32.3,0,17.6,0,16.9,0,16.8,0,16.5,0,17.1,0
2004/1/2,21:00:00,16.3,0,32.3,0,17.6,0,16.9,0,16.8,0,16.5,0,17.2,0
2004/1/2,21:10:00,16.3,0,32.3,0,17.6,0,16.9,0,16.8,0,16.5,0,17.2,0
2004/1/2,21:20:00,16.3,0,32.4,0,17.6,0,16.9,0,16.8,0,16.5,0,17.2,0
2004/1/2,21:30:00,16.3,0,32.3,0,17.6,0,16.9,0,16.8,0,16.5,0,17.2,0
2004/1/2,21:40:00,16.3,0,32.3,0,17.6,0,16.9,0,16.8,0,16.5,0,17.2,0
2004/1/2,21:50:00,16.3,0,32.4,0,17.6,0,16.9,0,16.8,0,16.5,0,17.2,0
2004/1/2,22:00:00,16.3,0,32.4,0,17.6,0,16.9,0,16.8,0,16.5,0,17.1,0
2004/1/2,22:10:00,16.3,0,32.4,0,17.6,0,16.9,0,16.8,0,16.5,0,17.2,0
2004/1/2,22:20:00,16.3,0,32.5,0,17.6,0,16.9,0,16.8,0,16.5,0,17.2,0
2004/1/2,22:30:00,16.3,0,32.5,0,17.6,0,16.9,0,16.8,0,16.5,0,17.2,0
2004/1/2,22:40:00,16.3,0,32.4,0,17.6,0,16.9,0,16.8,0,16.5,0,17.2,0
2004/1/2,22:50:00,16.3,0,32.4,0,17.6,0,16.9,0,16.8,0,16.5,0,17.2,0
2004/1/2,23:00:00,16.3,0,32.4,0,17.6,0,16.9,0,16.8,0,16.5,0,17.2,0
2004/1/2,23:10:00,16.3,0,32.4,0,17.6,0,16.9,0,16.8,0,16.5,0,17.1,0
2004/1/2,23:20:00,16.3,0,32.5,0,17.6,0,16.9,0,16.8,0,16.5,0,17.2,0
2004/1/2,23:30:00,16.3,0,32.5,0,17.6,0,16.9,0,16.8,0,16.5,0,17.1,0
2004/1/2,23:40:00,16.3,0,32.5,0,17.6,0,16.9,0,16.8,0,16.6,0,17.1,0
2004/1/2,23:50:00,16.3,0,32.5,0,17.6,0,16.9,0,16.8,0,16.6,0,17.1,0
2004/1/3,0:00:00,16.3,0,32.5,0,17.6,0,16.9,0,16.8,0,16.6,0,17.1,0
2004/1/3,0:10:00,16.3,0,32.5,0,17.6,0,16.9,0,16.8,0,16.6,0,17.1,0
2004/1/3,0:20:00,16.3,0,32.5,0,17.6,0,16.9,0,16.8,0,16.6,0,17.1,0
2004/1/3,0:30:00,16.3,0,32.5,0,17.6,0,16.9,0,16.8,0,16.6,0,17,0
2004/1/3,0:40:00,16.3,0,32.5,0,17.6,0,16.9,0,16.8,0,16.6,0,17,0
2004/1/3,0:50:00,16.3,0,32.5,0,17.6,0,16.9,0,16.8,0,16.6,0,17,0
2004/1/3,1:00:00,16.3,0,32.5,0,17.6,0,16.9,0,16.8,0,16.6,0,17,0
2004/1/3,1:10:00,16.3,0,32.4,0,17.6,0,16.9,0,16.8,0,16.6,0,17,0
2004/1/3,1:20:00,16.3,0,32.4,0,17.6,0,16.9,0,16.8,0,16.6,0,17,0
2004/1/3,1:30:00,16.2,0,32.4,0,17.6,0,16.9,0,16.8,0,16.6,0,17,0
2004/1/3,1:40:00,16.2,0,32.3,0,17.5,0,16.9,0,16.8,0,16.6,0,17.1,0
2004/1/3,1:50:00,16.2,0,32.4,0,17.5,0,16.8,0,16.8,0,16.6,0,17.1,0
2004/1/3,2:00:00,16.2,0,32.3,0,17.5,0,16.8,0,16.8,0,16.5,0,17.1,0
2004/1/3,2:10:00,16.2,0,32.3,0,17.5,0,16.8,0,16.8,0,16.5,0,17.1,0
2004/1/3,2:20:00,16.2,0,32.3,0,17.5,0,16.8,0,16.8,0,16.5,0,17.1,0
2004/1/3,2:30:00,16.2,0,32.3,0,17.5,0,16.8,0,16.8,0,16.5,0,17,0
2004/1/3,2:40:00,16.2,0,32.2,0,17.5,0,16.8,0,16.7,0,16.5,0,17,0
2004/1/3,2:50:00,16.2,0,32.2,0,17.5,0,16.8,0,16.7,0,16.5,0,17,0
2004/1/3,3:00:00,16.2,0,32.2,0,17.5,0,16.8,0,16.7,0,16.5,0,17,0
2004/1/3,3:10:00,16.2,0,32.1,0,17.5,0,16.8,0,16.7,0,16.5,0,17,0
2004/1/3,3:20:00,16.2,0,32.1,0,17.5,0,16.8,0,16.7,0,16.5,0,17,0
2004/1/3,3:30:00,16.2,0,32.2,0,17.4,0,16.8,0,16.7,0,16.5,0,17.1,0
2004/1/3,3:40:00,16.2,0,32.1,0,17.4,0,16.8,0,16.7,0,16.5,0,17.1,0
2004/1/3,3:50:00,16.2,0,32.1,0,17.4,0,16.8,0,16.7,0,16.5,0,17,0
2004/1/3,4:00:00,16.2,0,32.1,0,17.4,0,16.8,0,16.7,0,16.5,0,17,0
2004/1/3,4:10:00,16.2,0,32.1,0,17.4,0,16.8,0,16.7,0,16.5,0,16.9,0
2004/1/3,4:20:00,16.2,0,32.1,0,17.4,0,16.8,0,16.7,0,16.5,0,16.9,0
2004/1/3,4:30:00,16.2,0,32.1,0,17.4,0,16.8,0,16.7,0,16.5,0,16.9,0
2004/1/3,4:40:00,16.2,0,32.1,0,17.4,0,16.8,0,16.7,0,16.5,0,16.9,0
2004/1/3,4:50:00,16.2,0,32.1,0,17.4,0,16.8,0,16.7,0,16.5,0,16.9,0
2004/1/3,5:00:00,16.2,0,32.2,0,17.4,0,16.8,0,16.7,0,16.5,0,17,0
2004/1/3,5:10:00,16.2,0,32.2,0,17.4,0,16.8,0,16.7,0,16.5,0,17,0
2004/1/3,5:20:00,16.2,0,32.2,0,17.4,0,16.8,0,16.7,0,16.5,0,17,0
2004/1/3,5:30:00,16.2,0,32.2,0,17.4,0,16.8,0,16.7,0,16.5,0,17,0
2004/1/3,5:40:00,16.2,0,32.3,0,17.4,0,16.8,0,16.7,0,16.5,0,16.9,0
2004/1/3,5:50:00,16.1,0,32.2,0,17.4,0,16.7,0,16.7,0,16.5,0,16.9,0
2004/1/3,6:00:00,16.1,0,32.2,0,17.4,0,16.7,0,16.7,0,16.5,0,16.9,0
2004/1/3,6:10:00,16.1,0,32.3,0,17.4,0,16.7,0,16.6,0,16.6,0,16.9,0
2004/1/3,6:20:00,16.1,0,32.3,0,17.4,0,16.7,0,16.6,0,16.6,0,16.9,0
2004/1/3,6:30:00,16.1,0,32.3,0,17.4,0,16.7,0,16.6,0,16.6,0,16.9,0
2004/1/3,6:40:00,16.1,0,32.4,0,17.4,0,16.7,0,16.6,0,16.6,0,17,0
2004/1/3,6:50:00,16.1,0,32.4,0,17.3,0,16.7,0,16.6,0,16.6,0,17,0
2004/1/3,7:00:00,16.1,0,32.4,0,17.3,0,16.7,0,16.6,0,16.6,0,17,0
2004/1/3,7:10:00,16.1,0,32.4,0,17.3,0,16.7,0,16.6,0,16.6,0,17,0
2004/1/3,7:20:00,16.1,0,32.5,0,17.3,0,16.7,0,16.6,0,16.6,0,16.9,0
2004/1/3,7:30:00,16.1,0,32.5,0,17.3,0,16.7,0,16.6,0,16.6,0,17,0
2004/1/3,7:40:00,16.1,0,32.6,0,17.3,0,16.7,0,16.6,0,16.6,0,16.9,0
2004/1/3,7:50:00,16.1,0,32.6,0,17.3,0,16.7,0,16.6,0,16.6,0,16.9,0
2004/1/3,8:00:00,16.1,0,32.6,0,17.3,0,16.7,0,16.6,0,16.5,0,16.9,0
2004/1/3,8:10:00,16.1,0,32.6,0,17.3,0,16.7,0,16.6,0,16.5,0,16.9,0
2004/1/3,8:20:00,16.1,0,32.6,0,17.3,0,16.7,0,16.6,0,16.5,0,16.9,0
2004/1/3,8:30:00,16.1,0,32.6,0,17.3,0,16.7,0,16.6,0,16.5,0,16.9,0
2004/1/3,8:40:00,16.1,0,32.6,0,17.3,0,16.7,0,16.6,0,16.5,0,16.9,0
2004/1/3,8:50:00,16.1,0,32.6,0,17.3,0,16.7,0,16.6,0,16.5,0,16.9,0
2004/1/3,9:00:00,16.1,0,32.5,0,17.4,0,16.7,0,16.6,0,16.5,0,16.9,0
2004/1/3,9:10:00,16.1,0,32.4,0,17.4,0,16.7,0,16.6,0,16.5,0,16.9,0
2004/1/3,9:20:00,16.1,0,32.4,0,17.4,0,16.7,0,16.6,0,16.5,0,16.9,0
2004/1/3,9:30:00,16.2,0,32.3,0,17.4,0,16.7,0,16.6,0,16.5,0,16.9,0
2004/1/3,9:40:00,16.2,0,32.2,0,17.4,0,16.7,0,16.6,0,16.4,0,16.9,0
2004/1/3,9:50:00,16.1,0,32.1,0,17.3,0,16.8,0,16.6,0,16.4,0,16.9,0
2004/1/3,10:00:00,16.2,0,31.9,0,17.3,0,16.8,0,16.6,0,16.4,0,16.9,0
2004/1/3,10:10:00,16.2,0,31.9,0,17.3,0,16.8,0,16.6,0,16.4,0,16.9,0
2004/1/3,10:20:00,16.2,0,31.9,0,17.3,0,16.8,0,16.6,0,16.4,0,16.9,0
2004/1/3,10:30:00,16.2,0,32,0,17.4,0,16.8,0,16.7,0,16.4,0,16.9,0
2004/1/3,10:40:00,16.2,0,31.9,0,17.4,0,16.8,0,16.7,0,16.4,0,16.9,0
2004/1/3,10:50:00,16.2,0,32.1,0,17.4,0,16.8,0,16.7,0,16.4,0,16.9,0
2004/1/3,11:00:00,16.2,0,32,0,17.4,0,16.8,0,16.7,0,16.4,0,16.9,0
2004/1/3,11:10:00,16.2,0,32,0,17.4,0,16.8,0,16.7,0,16.5,0,17,0
2004/1/3,11:20:00,16.3,0,32,0,17.4,0,16.9,0,16.7,0,16.5,0,16.9,0
2004/1/3,11:30:00,16.3,0,31.8,0,17.4,0,16.9,0,16.7,0,16.5,0,17,0
2004/1/3,11:40:00,16.4,0,32,0,17.5,0,17,0,16.8,0,16.5,0,17.1,0
2004/1/3,11:50:00,16.5,0,32,0,17.5,0,17,0,16.8,0,16.5,0,17.1,0
2004/1/3,12:00:00,16.4,0,31.9,0,17.5,0,17,0,16.8,0,16.5,0,17.2,0